Location: ???????
(52.3000°N, 54.4667°E)
Time: 10:10:27
(UTC+00:00)

Ariane Rocket - Pass Details

Date: 24 January 2020
Orbit: 761 x 769 km, 98.7° (Epoch: 16 February)

Event Time Altitude Azimuth Distance (km) Brightness Sun altitude
Rises 13:51:28 0° 117° (ESE) 3,226 5.8 -8.9°
Reaches altitude 10° 13:54:15 10° 102° (ESE) 2,306 5.0 -9.3°
Maximum altitude 13:57:57 21° 55° (NE) 1,683 4.2 -9.8°
Drops below altitude 10° 14:01:41 10° 8° (N) 2,320 5.2 -10.3°
Sets 14:04:29 0° 353° (N) 3,253 6.1 -10.7°
